Regional Weather Roundup
Issued by NWS

Home | Current Version | Previous Version | Graphics & Text | Print | Product List | Glossary On
Versions: 1 2 3 4 5 6 7 8 9 10 11 12 13 14 15 16 17 18 19 20 21 22 23 24 25 26 27 28 29 30 31 32 33 34 35 36 37 38 39 40 41 42 43 44 45 46 47 48 49 50
000
ASUS43 KTOP 110159
RWRKS

WEATHER ROUNDUP FOR KANSAS
NATIONAL WEATHER SERVICE GOODLAND KS
800 PM CST SUN DEC 10 2017

NOTE:  "FAIR" INDICATES FEW OR NO CLOUDS BELOW 12,000 FEET WITH NO
SIGNIFICANT WEATHER AND/OR OBSTRUCTIONS TO VISIBILITY.

KSZ001>006-013>018-027>032-041>047-110300-
NORTHWEST KANSAS

CITY           SKY/WX    TMP DP  RH WIND       PRES   REMARKS
GOODLAND       CLOUDY    36   2  23 SW10      30.26S WCI  28
HAYS           CLEAR     44  14  29 VRB6      30.21F
HILL CITY      CLEAR     42  15  33 W9        30.21F
RUSSELL        CLEAR     39  16  39 SW9       30.18F
$$

KSZ061>065-074>080-084>089-110300-
SOUTHWEST KANSAS

CITY           SKY/WX    TMP DP  RH WIND       PRES   REMARKS
DODGE CITY     CLEAR     46   8  21 W9        30.27S
GARDEN CITY    CLEAR     40   8  26 W10       30.28R WCI  33
GREAT BEND     CLEAR     41  14  33 W7        30.22S
LIBERAL        CLOUDY    33   5  30 W9        30.31S
$$

KSZ066>073-081>083-090>101-110300-
SOUTHEAST KANSAS

CITY           SKY/WX    TMP DP  RH WIND       PRES   REMARKS
CHANUTE        CLEAR     41  23  48 CALM      30.18S
COFFEYVILLE    CLEAR     46  23  40 CALM      30.19S
HUTCHINSON     CLEAR     42  17  36 W5        30.20S
MEDICINE LODGE   N/A     47  17  30 N5        30.24R
NEWTON         CLEAR     49  15  25 W7        30.20S
PARSONS        CLEAR     35  23  61 CALM      30.19F
WICHITA INTL   CLEAR     43  18  36 W7        30.20S
WICHITA JABRA  CLEAR     49  18  29 W10       30.19F
WICHITA MCCONL CLEAR     52  17  25 W6        30.19F
WINFIELD       CLEAR     47  18  31 W5        30.21S
$$

KSZ007>012-019>026-033>040-048>060-102>105-110300-
NORTHEAST KANSAS

CITY           SKY/WX    TMP DP  RH WIND       PRES   REMARKS
CONCORDIA      CLEAR     48  15  26 W9        30.14F
EMPORIA        CLEAR     45  17  32 W6        30.17R
LAWRENCE       CLEAR     34  23  64 CALM      30.15S
MANHATTAN      CLEAR     37  19  48 S3        30.15S
OLATHE IND     CLEAR     42  24  49 SW3       30.16R
OLATHE EXE     CLEAR     43  24  47 W5        30.15R
SALINA         CLEAR     50  16  25 SW6       30.17S
TOPEKA BILLARD CLEAR     40  24  53 CALM      30.14S
TOPEKA FORBES  CLEAR     41  22  46 SW7       30.15R
$$



USA.gov is the U.S. government's official web portal to all federal, state and local government web resources and services.